• In Russia
  • List of Countries
  • For 7 days
  • Water Temperature
  • Satellite Maps
  • Weather Map
  • Weather Widgets
  • user-avatar
    Login

    Hourly Weather Dubki

    Today, 19 April, Thursday

    Time Temperature Precipitation Wind Pressure Humidity
    00:00 +10°C° 0.2 mm 3 mps 747 mmHg 86%
    01:00 +10°C° 0.9 mm 4 mps 746 mmHg 89%
    02:00 +10°C° 0.9 mm 4 mps 745 mmHg 91%
    03:00 +9°C° 0 mm 5 mps 745 mmHg 92%
    04:00 +9°C° 1.7 mm 5 mps 744 mmHg 92%
    05:00 +9°C° 1.7 mm 5 mps 744 mmHg 92%
    06:00 +9°C° 1.7 mm 5 mps 743 mmHg 92%
    07:00 +9°C° 0.9 mm 5 mps 743 mmHg 92%
    08:00 +9°C° 0.9 mm 5 mps 742 mmHg 92%
    09:00 +9°C° 0.9 mm 5 mps 742 mmHg 91%
    10:00 +9°C° 0.4 mm 5 mps 742 mmHg 90%
    11:00 +9°C° 0.4 mm 5 mps 741 mmHg 89%
    12:00 +9°C° 0.4 mm 5 mps 741 mmHg 87%
    13:00 +10°C° 0.1 mm 5 mps 741 mmHg 83%
    14:00 +12°C° 0.1 mm 5 mps 741 mmHg 78%
    15:00 +12°C° 0.1 mm 5 mps 741 mmHg 74%
    16:00 +12°C° 0.1 mm 5 mps 741 mmHg 75%
    17:00 +11°C° 0.1 mm 4 mps 741 mmHg 77%
    18:00 +11°C° 0.1 mm 4 mps 741 mmHg 78%
    19:00 +8°C° 0 mm 4 mps 741 mmHg 82%
    20:00 +7°C° 0 mm 4 mps 741 mmHg 87%
    21:00 +7°C° 0 mm 3 mps 741 mmHg 91%
    22:00 +7°C° 0 mm 3 mps 740 mmHg 92%
    23:00 +6°C° 0 mm 2 mps 740 mmHg 94%

    Tomorrow, 20 April, Friday

    Time Temperature Precipitation Wind Pressure Humidity
    00:00 +5°C° 0 mm 2 mps 740 mmHg 95%
    01:00 +5°C° 0 mm 2 mps 740 mmHg 95%
    02:00 +5°C° 0 mm 2 mps 740 mmHg 95%
    03:00 +5°C° 0 mm 1 mps 739 mmHg 94%
    04:00 +6°C° 0 mm 1 mps 739 mmHg 94%
    05:00 +6°C° 0 mm 1 mps 739 mmHg 93%
    06:00 +5°C° 0 mm 0 mps 739 mmHg 93%
    07:00 +8°C° 0 mm 1 mps 739 mmHg 88%
    08:00 +9°C° 0 mm 1 mps 739 mmHg 83%
    09:00 +10°C° 0 mm 1 mps 740 mmHg 79%
    10:00 +10°C° 0.1 mm 2 mps 740 mmHg 77%
    11:00 +10°C° 0.1 mm 3 mps 740 mmHg 75%
    12:00 +10°C° 0.1 mm 3 mps 740 mmHg 74%
    13:00 +10°C° 0.1 mm 4 mps 740 mmHg 73%
    14:00 +9°C° 0.1 mm 5 mps 740 mmHg 73%
    15:00 +8°C° 0.1 mm 7 mps 741 mmHg 73%
    16:00 +8°C° 0 mm 6 mps 741 mmHg 72%
    17:00 +7°C° 0 mm 6 mps 742 mmHg 72%
    18:00 +5°C° 0 mm 6 mps 742 mmHg 71%
    19:00 +4°C° 0 mm 6 mps 743 mmHg 72%
    20:00 +3°C° 0 mm 6 mps 743 mmHg 74%
    21:00 +2°C° 0 mm 6 mps 744 mmHg 75%
    22:00 +2°C° 0 mm 6 mps 744 mmHg 73%
    23:00 +1°C° 0 mm 5 mps 745 mmHg 71%

    Day after tomorrow, 21 April, Saturday

    Time Temperature Precipitation Wind Pressure Humidity
    00:00 0°C° 0 mm 5 mps 745 mmHg 69%
    01:00 -1°C° 0 mm 5 mps 745 mmHg 70%
    02:00 -1°C° 0 mm 4 mps 746 mmHg 71%
    03:00 -1°C° 0 mm 3 mps 746 mmHg 72%
    04:00 -2°C° 0 mm 4 mps 746 mmHg 70%
    05:00 -2°C° 0 mm 4 mps 746 mmHg 68%
    06:00 -2°C° 0 mm 4 mps 747 mmHg 66%
    07:00 -1°C° 0 mm 4 mps 747 mmHg 60%
    08:00 +1°C° 0 mm 3 mps 747 mmHg 53%
    09:00 +2°C° 0 mm 3 mps 747 mmHg 47%
    10:00 +3°C° 0 mm 3 mps 746 mmHg 44%
    11:00 +5°C° 0 mm 2 mps 746 mmHg 42%
    12:00 +7°C° 0 mm 1 mps 746 mmHg 39%
    13:00 +7°C° 0 mm 1 mps 745 mmHg 37%
    14:00 +7°C° 0 mm 2 mps 745 mmHg 36%
    15:00 +7°C° 0 mm 2 mps 745 mmHg 35%
    16:00 +7°C° 0 mm 2 mps 744 mmHg 38%
    17:00 +7°C° 0 mm 2 mps 744 mmHg 42%
    18:00 +6°C° 0 mm 2 mps 743 mmHg 45%
    19:00 +5°C° 0 mm 3 mps 743 mmHg 47%
    20:00 +5°C° 0 mm 4 mps 742 mmHg 49%
    21:00 +4°C° 0 mm 4 mps 742 mmHg 51%
    22:00 +3°C° 0.1 mm 5 mps 741 mmHg 51%
    23:00 +3°C° 0.1 mm 6 mps 740 mmHg 52%

    22 April, Sunday

    Time Temperature Precipitation Wind Pressure Humidity
    00:00 +4°C° 0.1 mm 7 mps 739 mmHg 53%
    01:00 +2°C° 0 mm 8 mps 738 mmHg 55%
    02:00 +2°C° 0 mm 8 mps 737 mmHg 57%
    03:00 +2°C° 0 mm 8 mps 736 mmHg 59%
    04:00 +3°C° 0 mm 9 mps 735 mmHg 62%
    05:00 +3°C° 0 mm 9 mps 735 mmHg 65%
    06:00 +3°C° 0 mm 9 mps 734 mmHg 68%
    07:00 +3°C° 0.4 mm 9 mps 734 mmHg 72%
    08:00 +5°C° 0.4 mm 9 mps 734 mmHg 75%
    09:00 +5°C° 0.4 mm 9 mps 734 mmHg 79%
    10:00 +5°C° 0.6 mm 8 mps 734 mmHg 79%
    11:00 +5°C° 0.6 mm 8 mps 733 mmHg 80%
    12:00 +6°C° 0.6 mm 7 mps 733 mmHg 81%
    13:00 +6°C° 0.1 mm 7 mps 734 mmHg 75%
    14:00 +8°C° 0.1 mm 7 mps 734 mmHg 69%
    15:00 +9°C° 0.1 mm 7 mps 734 mmHg 62%
    16:00 +8°C° 0 mm 6 mps 734 mmHg 64%
    17:00 +7°C° 0 mm 5 mps 735 mmHg 65%
    18:00 +7°C° 0 mm 5 mps 735 mmHg 66%
    19:00 +6°C° 0 mm 4 mps 736 mmHg 69%
    20:00 +4°C° 0 mm 4 mps 736 mmHg 72%
    21:00 +3°C° 0 mm 4 mps 737 mmHg 75%
    22:00 +3°C° 0 mm 4 mps 737 mmHg 77%
    23:00 +1°C° 0 mm 4 mps 737 mmHg 80%

    23 April, Monday

    Time Temperature Precipitation Wind Pressure Humidity
    00:00 +1°C° 0 mm 3 mps 738 mmHg 82%
    01:00 0°C° 0 mm 4 mps 738 mmHg 83%
    02:00 -1°C° 0 mm 4 mps 739 mmHg 84%
    03:00 -1°C° 0 mm 4 mps 739 mmHg 85%
    04:00 -1°C° 0 mm 4 mps 739 mmHg 82%
    05:00 -1°C° 0 mm 5 mps 740 mmHg 80%
    06:00 -1°C° 0 mm 5 mps 740 mmHg 78%
    07:00 0°C° 0 mm 5 mps 740 mmHg 72%
    08:00 0°C° 0 mm 5 mps 741 mmHg 67%
    09:00 +1°C° 0 mm 5 mps 741 mmHg 61%
    10:00 +1°C° 0 mm 5 mps 741 mmHg 59%
    11:00 +2°C° 0 mm 5 mps 742 mmHg 56%
    12:00 +2°C° 0 mm 5 mps 742 mmHg 54%
    13:00 +2°C° 0 mm 5 mps 743 mmHg 52%
    14:00 +3°C° 0 mm 5 mps 743 mmHg 51%
    15:00 +3°C° 0 mm 5 mps 743 mmHg 49%
    16:00 +3°C° 0 mm 4 mps 744 mmHg 51%
    17:00 +3°C° 0 mm 4 mps 744 mmHg 53%
    18:00 +3°C° 0 mm 3 mps 744 mmHg 54%
    19:00 +2°C° 0 mm 3 mps 745 mmHg 59%
    20:00 0°C° 0 mm 3 mps 745 mmHg 63%
    21:00 -1°C° 0 mm 2 mps 745 mmHg 68%
    22:00 -1°C° 0 mm 2 mps 745 mmHg 69%
    23:00 -1°C° 0 mm 2 mps 745 mmHg 71%

    24 April, Tuesday

    Time Temperature Precipitation Wind Pressure Humidity
    00:00 -2°C° 0 mm 2 mps 746 mmHg 72%
    01:00 -2°C° 0 mm 2 mps 746 mmHg 73%
    02:00 -2°C° 0 mm 2 mps 746 mmHg 73%
    03:00 -2°C° 0 mm 2 mps 746 mmHg 74%
    04:00 -2°C° 0 mm 2 mps 746 mmHg 71%
    05:00 -1°C° 0 mm 3 mps 747 mmHg 68%
    06:00 -1°C° 0 mm 3 mps 747 mmHg 65%
    07:00 0°C° 0 mm 3 mps 747 mmHg 60%
    08:00 0°C° 0 mm 4 mps 747 mmHg 55%
    09:00 +1°C° 0 mm 4 mps 747 mmHg 49%
    10:00 +3°C° 0 mm 4 mps 747 mmHg 48%
    11:00 +3°C° 0 mm 4 mps 747 mmHg 47%
    12:00 +4°C° 0 mm 4 mps 747 mmHg 47%
    13:00 +4°C° 0 mm 4 mps 747 mmHg 46%
    14:00 +3°C° 0 mm 5 mps 747 mmHg 45%
    15:00 +5°C° 0 mm 5 mps 748 mmHg 44%
    16:00 +4°C° 0 mm 4 mps 748 mmHg 46%
    17:00 +4°C° 0 mm 3 mps 748 mmHg 48%
    18:00 +3°C° 0 mm 3 mps 748 mmHg 51%
    19:00 +3°C° 0 mm 2 mps 748 mmHg 54%
    20:00 +2°C° 0 mm 2 mps 749 mmHg 57%
    21:00 +1°C° 0 mm 2 mps 749 mmHg 60%
    22:00 +1°C° 0 mm 2 mps 749 mmHg 61%
    23:00 +1°C° 0 mm 2 mps 749 mmHg 62%
    Show more